Location: Newark
(42.8270°N, 8.3618°W)
Time: 04:11:21
(UTC+00:00)

Hubble Space Telescope - Pass Details

Date: 29 September 2020
Orbit: 536 x 540 km, 28.5° (Epoch: 21 October)

Event Time Altitude Azimuth Distance (km) Brightness Sun altitude
Exits shadow 05:34:57 - 218° (SW) 2,105 3.4 -10.7°
Reaches altitude 10° 05:36:52 10° 195° (SSW) 1,776 3.2 -10.3°
Maximum altitude 05:37:54 11° 181° (S) 1,725 3.3 -10.2°
Drops below altitude 10° 05:38:56 10° 166° (SSE) 1,776 3.5 -10.0°
Sets 05:42:53 0° 129° (SE) 2,665 5.1 -9.2°
